DLH9ED EDDF-GCTS

Flight info

Callsign DLH9ED
Flight time N/A
Altitude 39000
Route ANEKI2L/18 ANEKI Y163 HERBI Y164 MOPAN DCT LUTIX DCT BENOT DCT NEMOS/N0484F410 DCT NINTU DCT MEBAK DCT REPSI DCT LERGA DCT MINSO DCT NARAK DCT AGN DCT MAQAB DCT TIVLI N869 ZAR Z245 CJN N10 SVL N857 KORNO UN857 TERTO
Aircraft A359/H-SDE2E3GHIJ3J4J5LM1ORWXY/LB1D1

Departure

Time 2026-05-04 12:42
Airport Frankfurt Main Airport (EDDF)

Arrival

Time N/A
Airport Tenerife Sur Airport (GCTS)
Time Latitude Longitude Altitude Speed Heading
2026-05-04 11:57 50.04703 8.56850 369 ft 0 kts 294°
2026-05-04 12:28 50.04696 8.56873 367 ft 4 kts 292°
2026-05-04 12:28 50.04687 8.56905 366 ft 3 kts 294°
2026-05-04 12:28 50.04682 8.56941 367 ft 4 kts 245°
2026-05-04 12:29 50.04699 8.56966 370 ft 3 kts 204°
2026-05-04 12:29 50.04687 8.56958 370 ft 4 kts 204°
2026-05-04 12:29 50.04664 8.56941 371 ft 3 kts 204°
2026-05-04 12:29 50.04660 8.56939 371 ft 0 kts 204°
2026-05-04 12:35 50.04654 8.56935 365 ft 4 kts 203°
2026-05-04 12:35 50.04591 8.56905 368 ft 14 kts 194°
2026-05-04 12:35 50.04498 8.56872 365 ft 11 kts 193°
2026-05-04 12:36 50.04451 8.56813 373 ft 10 kts 243°
2026-05-04 12:36 50.04414 8.56674 365 ft 17 kts 250°
2026-05-04 12:36 50.04367 8.56470 369 ft 23 kts 249°
2026-05-04 12:36 50.04307 8.56218 370 ft 27 kts 249°
2026-05-04 12:37 50.04236 8.55921 361 ft 30 kts 250°
2026-05-04 12:37 50.04160 8.55608 366 ft 31 kts 249°
2026-05-04 12:37 50.04086 8.55299 366 ft 29 kts 249°
2026-05-04 12:37 50.04015 8.55001 366 ft 30 kts 250°
2026-05-04 12:38 50.03942 8.54694 363 ft 31 kts 249°
2026-05-04 12:38 50.03889 8.54473 360 ft 2 kts 250°
2026-05-04 12:38 50.03864 8.54384 362 ft 17 kts 241°
2026-05-04 12:38 50.03800 8.54218 361 ft 19 kts 246°
2026-05-04 12:39 50.03751 8.54017 357 ft 22 kts 249°
2026-05-04 12:39 50.03694 8.53778 352 ft 24 kts 249°
2026-05-04 12:39 50.03630 8.53524 356 ft 26 kts 249°
2026-05-04 12:39 50.03566 8.53255 354 ft 27 kts 249°
2026-05-04 12:40 50.03507 8.53011 354 ft 15 kts 249°
2026-05-04 12:40 50.03466 8.52852 353 ft 17 kts 246°
2026-05-04 12:40 50.03426 8.52700 353 ft 14 kts 249°
2026-05-04 12:40 50.03384 8.52598 351 ft 7 kts 192°
2026-05-04 12:41 50.03325 8.52594 347 ft 15 kts 180°
2026-05-04 12:41 50.03013 8.52598 350 ft 79 kts 179°
2026-05-04 12:41 50.02241 8.52605 350 ft 140 kts 179°
2026-05-04 12:41 50.01161 8.52664 804 ft 148 kts 179°
2026-05-04 12:42 50.00263 8.52804 1833 ft 114 kts 178°
2026-05-04 12:42 49.99512 8.52813 2438 ft 108 kts 184°
2026-05-04 12:42 49.98730 8.52812 2851 ft 110 kts 183°
2026-05-04 12:42 49.98014 8.52840 3261 ft 105 kts 182°
2026-05-04 12:43 49.97199 8.52889 3308 ft 132 kts 182°
2026-05-04 12:43 49.96209 8.52947 3515 ft 152 kts 181°
2026-05-04 12:43 49.95089 8.53014 3773 ft 171 kts 181°
2026-05-04 12:43 49.93828 8.53095 4029 ft 192 kts 181°
2026-05-04 12:44 49.92400 8.53184 4316 ft 216 kts 180°
2026-05-04 12:44 49.90848 8.53292 4878 ft 227 kts 180°
2026-05-04 12:44 49.89248 8.53405 5588 ft 232 kts 180°
2026-05-04 12:44 49.87616 8.53519 6362 ft 235 kts 180°
2026-05-04 12:45 49.85972 8.53629 7146 ft 237 kts 180°
2026-05-04 12:45 49.84329 8.53737 8030 ft 235 kts 179°
2026-05-04 12:45 49.82716 8.53845 8944 ft 234 kts 178°
2026-05-04 12:45 49.81093 8.53953 9855 ft 233 kts 178°
2026-05-04 12:46 49.79463 8.54061 10653 ft 235 kts 178°
2026-05-04 12:46 49.77813 8.54082 11374 ft 240 kts 183°
2026-05-04 12:46 49.76680 8.53972 11694 ft 252 kts 185°
2026-05-04 12:46 49.74860 8.53734 12057 ft 273 kts 185°
2026-05-04 12:47 49.72894 8.53463 12427 ft 293 kts 185°
2026-05-04 12:47 49.70796 8.53178 12800 ft 312 kts 185°
2026-05-04 12:47 49.68563 8.52878 13184 ft 330 kts 185°
2026-05-04 12:47 49.66241 8.52570 13566 ft 347 kts 185°
2026-05-04 12:48 49.63794 8.52246 14077 ft 357 kts 185°
2026-05-04 12:48 49.61305 8.51917 14719 ft 362 kts 185°
2026-05-04 12:48 49.58778 8.51585 15415 ft 366 kts 185°
2026-05-04 12:48 49.56223 8.51248 16112 ft 369 kts 186°
2026-05-04 12:49 49.53651 8.50910 16810 ft 373 kts 186°
2026-05-04 12:49 49.51046 8.50568 17504 ft 376 kts 186°
2026-05-04 12:49 49.48456 8.50229 18183 ft 380 kts 186°
2026-05-04 12:49 49.45802 8.49881 18800 ft 383 kts 186°
2026-05-04 12:50 49.43128 8.49531 19429 ft 387 kts 186°
2026-05-04 12:50 49.40432 8.49179 20081 ft 390 kts 186°
2026-05-04 12:50 49.37724 8.48825 20744 ft 392 kts 186°
2026-05-04 12:50 49.34987 8.48468 21426 ft 395 kts 186°
2026-05-04 12:51 49.32235 8.48108 22086 ft 398 kts 186°
2026-05-04 12:51 49.29496 8.47748 22742 ft 401 kts 186°
2026-05-04 12:51 49.26704 8.47380 23382 ft 404 kts 186°
2026-05-04 12:51 49.23888 8.47012 23942 ft 407 kts 186°
2026-05-04 12:52 49.21050 8.46644 24442 ft 411 kts 187°
2026-05-04 12:52 49.18186 8.46274 24995 ft 414 kts 187°
2026-05-04 12:52 49.15304 8.45902 25523 ft 417 kts 187°
2026-05-04 12:52 49.12403 8.45528 26038 ft 420 kts 187°
2026-05-04 12:53 49.09475 8.45149 26547 ft 423 kts 187°
2026-05-04 12:53 49.06539 8.44638 27041 ft 425 kts 192°
2026-05-04 12:53 49.03630 8.43781 27536 ft 428 kts 194°
2026-05-04 12:53 49.00714 8.42826 28056 ft 430 kts 195°
2026-05-04 12:54 48.97821 8.41830 28571 ft 432 kts 195°
2026-05-04 12:54 48.94880 8.40795 29090 ft 435 kts 195°
2026-05-04 12:54 48.91919 8.39748 29576 ft 438 kts 195°
2026-05-04 12:54 48.88940 8.38699 30015 ft 441 kts 195°
2026-05-04 12:55 48.85937 8.37648 30395 ft 444 kts 195°
2026-05-04 12:55 48.82919 8.36598 30757 ft 446 kts 195°
2026-05-04 12:55 48.79878 8.35543 31117 ft 449 kts 195°
2026-05-04 12:55 48.76826 8.34479 31460 ft 451 kts 195°
2026-05-04 12:56 48.73765 8.33375 31762 ft 454 kts 196°
2026-05-04 12:56 48.70680 8.32243 32060 ft 456 kts 196°
2026-05-04 12:56 48.67630 8.31119 32329 ft 458 kts 196°
2026-05-04 12:56 48.64531 8.29979 32753 ft 457 kts 196°
2026-05-04 12:57 48.61443 8.28849 33237 ft 455 kts 196°
2026-05-04 12:57 48.58370 8.27730 33694 ft 454 kts 196°
2026-05-04 12:57 48.55290 8.26610 34056 ft 454 kts 196°
2026-05-04 12:57 48.52220 8.25496 34379 ft 453 kts 196°
2026-05-04 12:58 48.49156 8.24387 34676 ft 453 kts 196°
2026-05-04 12:58 48.46122 8.23293 34979 ft 453 kts 196°
2026-05-04 12:58 48.43053 8.22176 35268 ft 453 kts 196°
2026-05-04 12:58 48.39984 8.21054 35560 ft 453 kts 196°
2026-05-04 12:59 48.36920 8.19931 35831 ft 454 kts 196°
2026-05-04 12:59 48.33842 8.18805 36062 ft 455 kts 196°
2026-05-04 12:59 48.30764 8.17683 36302 ft 455 kts 196°
2026-05-04 12:59 48.27688 8.16561 36586 ft 455 kts 196°
2026-05-04 13:00 48.24662 8.15165 36841 ft 453 kts 202°
2026-05-04 13:00 48.21770 8.13306 37132 ft 452 kts 206°
2026-05-04 13:00 48.18923 8.11294 37346 ft 452 kts 207°
2026-05-04 13:00 48.16129 8.09245 37610 ft 452 kts 208°
2026-05-04 13:01 48.13313 8.07148 37850 ft 452 kts 208°
2026-05-04 13:01 48.10495 8.05044 38099 ft 452 kts 208°
2026-05-04 13:01 48.07670 8.02938 38349 ft 452 kts 208°
2026-05-04 13:01 48.04852 8.00846 38585 ft 452 kts 207°
2026-05-04 13:02 48.02028 7.98762 38784 ft 452 kts 207°
2026-05-04 13:02 47.99206 7.96686 38929 ft 453 kts 207°
2026-05-04 13:02 47.96408 7.94633 38988 ft 454 kts 207°
2026-05-04 13:03 47.90739 7.90486 38990 ft 453 kts 207°
2026-05-04 13:03 47.85058 7.86338 38988 ft 453 kts 207°
2026-05-04 13:04 47.79415 7.82227 38985 ft 453 kts 207°
2026-05-04 13:04 47.73739 7.78099 38991 ft 453 kts 207°
2026-05-04 13:05 47.68075 7.73996 38991 ft 452 kts 207°
2026-05-04 13:05 47.62447 7.69922 38994 ft 452 kts 207°
2026-05-04 13:06 47.56774 7.65832 38995 ft 452 kts 207°
2026-05-04 13:06 47.51098 7.61748 38989 ft 453 kts 207°
2026-05-04 13:07 47.45435 7.57682 38995 ft 453 kts 207°
2026-05-04 13:07 47.39792 7.53641 38989 ft 453 kts 207°
2026-05-04 13:08 47.34123 7.49590 38985 ft 453 kts 207°
2026-05-04 13:08 47.28439 7.45538 38998 ft 453 kts 207°
2026-05-04 13:09 47.22802 7.41530 38995 ft 453 kts 207°
2026-05-04 13:09 47.17349 7.36927 38995 ft 451 kts 218°
2026-05-04 13:10 47.12890 7.30479 38988 ft 451 kts 230°
2026-05-04 13:10 47.08935 7.23302 38998 ft 452 kts 231°
2026-05-04 13:11 47.05044 7.16028 39020 ft 453 kts 231°
2026-05-04 13:11 47.01137 7.08788 39024 ft 453 kts 231°
2026-05-04 13:12 46.97219 7.01618 39038 ft 452 kts 231°
2026-05-04 13:12 46.93269 6.94429 39063 ft 452 kts 231°
2026-05-04 13:13 46.89361 6.87336 39049 ft 449 kts 231°
2026-05-04 13:13 46.85425 6.80215 39049 ft 449 kts 231°
2026-05-04 13:14 46.81495 6.73121 39046 ft 449 kts 231°
2026-05-04 13:14 46.77558 6.66031 39035 ft 449 kts 231°
2026-05-04 13:15 46.73646 6.59008 39037 ft 447 kts 231°
2026-05-04 13:15 46.69720 6.51975 39027 ft 447 kts 231°
2026-05-04 13:16 46.65798 6.44967 39033 ft 446 kts 231°
2026-05-04 13:16 46.61872 6.37969 39030 ft 446 kts 231°
2026-05-04 13:17 46.57943 6.30987 39031 ft 445 kts 231°
2026-05-04 13:17 46.54042 6.24071 39040 ft 445 kts 231°
2026-05-04 13:18 46.50109 6.17114 39042 ft 445 kts 231°
2026-05-04 13:18 46.46169 6.10163 39042 ft 446 kts 230°
2026-05-04 13:19 46.42230 6.03232 39046 ft 445 kts 230°
2026-05-04 13:19 46.38291 5.96316 39074 ft 444 kts 230°
2026-05-04 13:20 46.34352 5.89420 39058 ft 444 kts 230°
2026-05-04 13:20 46.30420 5.82551 39055 ft 443 kts 230°
2026-05-04 13:21 46.26495 5.75713 39061 ft 443 kts 230°
2026-05-04 13:21 46.22553 5.68862 39035 ft 443 kts 230°
2026-05-04 13:22 46.18607 5.62021 39031 ft 443 kts 230°
2026-05-04 13:22 46.14712 5.55130 39033 ft 442 kts 234°
2026-05-04 13:23 46.11172 5.47929 39033 ft 442 kts 235°
2026-05-04 13:23 46.07674 5.40636 39033 ft 441 kts 235°
2026-05-04 13:24 46.04184 5.33354 39029 ft 441 kts 235°
2026-05-04 13:24 46.00718 5.26155 39034 ft 439 kts 235°
2026-05-04 13:25 45.95496 5.15364 39035 ft 438 kts 235°
2026-05-04 13:25 45.92007 5.08176 39039 ft 437 kts 234°
2026-05-04 13:26 45.88523 5.01019 39042 ft 437 kts 234°
2026-05-04 13:26 45.85043 4.93889 39043 ft 437 kts 234°
2026-05-04 13:27 45.81579 4.86806 39047 ft 435 kts 234°
2026-05-04 13:27 45.78096 4.79701 39046 ft 435 kts 234°
2026-05-04 13:28 45.74608 4.72606 39041 ft 435 kts 234°
2026-05-04 13:28 45.71115 4.65520 39010 ft 436 kts 234°
2026-05-04 13:29 45.67599 4.58404 39004 ft 437 kts 234°
2026-05-04 13:29 45.64101 4.51340 39015 ft 437 kts 234°
2026-05-04 13:30 45.60579 4.44244 39016 ft 437 kts 234°
2026-05-04 13:30 45.57052 4.37155 39022 ft 437 kts 234°
2026-05-04 13:31 45.53522 4.30078 39020 ft 437 kts 233°
2026-05-04 13:31 45.49986 4.23006 39016 ft 440 kts 233°
2026-05-04 13:32 45.46444 4.15948 39016 ft 440 kts 233°
2026-05-04 13:32 45.42874 4.08855 39011 ft 440 kts 233°
2026-05-04 13:33 45.39295 4.01761 38999 ft 440 kts 233°
2026-05-04 13:33 45.35719 3.94689 38991 ft 440 kts 233°
2026-05-04 13:34 45.32161 3.87669 38999 ft 440 kts 233°
2026-05-04 13:34 45.28589 3.80639 39004 ft 438 kts 233°
2026-05-04 13:35 45.23838 3.71281 38980 ft 438 kts 234°
2026-05-04 13:36 45.20350 3.64180 38979 ft 438 kts 234°
2026-05-04 13:36 45.16873 3.57066 38985 ft 438 kts 234°
2026-05-04 13:37 45.13382 3.49982 38968 ft 438 kts 234°
2026-05-04 13:37 45.09914 3.42984 38980 ft 435 kts 234°
2026-05-04 13:38 45.06430 3.35980 38980 ft 435 kts 234°
2026-05-04 13:38 45.02944 3.28988 38978 ft 435 kts 233°
2026-05-04 13:39 44.99450 3.21994 38982 ft 435 kts 234°
2026-05-04 13:39 44.95972 3.15048 38976 ft 435 kts 234°
2026-05-04 13:40 44.92472 3.08073 38979 ft 434 kts 234°
2026-05-04 13:40 44.88967 3.01108 38978 ft 435 kts 234°
2026-05-04 13:41 44.85449 2.94135 38975 ft 436 kts 234°
2026-05-04 13:41 44.82036 2.87120 38968 ft 437 kts 236°
2026-05-04 13:42 44.77131 2.76271 38958 ft 437 kts 236°
2026-05-04 13:42 44.73842 2.69073 38953 ft 437 kts 236°
2026-05-04 13:43 44.70542 2.61938 38956 ft 438 kts 236°
2026-05-04 13:43 44.67199 2.54749 38945 ft 439 kts 236°
2026-05-04 13:44 44.63863 2.47592 38937 ft 439 kts 236°
2026-05-04 13:44 44.60515 2.40412 38945 ft 439 kts 236°
2026-05-04 13:45 44.57150 2.33232 38942 ft 439 kts 236°
2026-05-04 13:45 44.53817 2.26133 38943 ft 439 kts 236°
2026-05-04 13:46 44.50449 2.18973 38937 ft 440 kts 236°
2026-05-04 13:46 44.47074 2.11819 38938 ft 440 kts 236°
2026-05-04 13:47 44.43716 2.04713 38933 ft 440 kts 236°
2026-05-04 13:47 44.40340 1.97589 38912 ft 440 kts 235°
2026-05-04 13:48 44.36947 1.90447 38936 ft 440 kts 236°
2026-05-04 13:48 44.33540 1.83296 38925 ft 443 kts 236°
2026-05-04 13:49 44.30114 1.76120 38916 ft 444 kts 236°
2026-05-04 13:49 44.26742 1.68948 38917 ft 444 kts 236°
2026-05-04 13:50 44.23419 1.61657 38916 ft 445 kts 237°
2026-05-04 13:50 44.20097 1.54385 38910 ft 444 kts 236°
2026-05-04 13:51 44.16883 1.47406 38910 ft 446 kts 236°
2026-05-04 13:51 44.13512 1.40121 38909 ft 448 kts 236°
2026-05-04 13:52 44.08437 1.29195 38913 ft 448 kts 236°
2026-05-04 13:53 44.05045 1.21912 38911 ft 448 kts 236°
2026-05-04 13:53 44.01675 1.14694 38909 ft 448 kts 236°
2026-05-04 13:54 43.96586 1.03826 38912 ft 446 kts 236°
2026-05-04 13:55 43.91513 0.93038 38917 ft 446 kts 236°
2026-05-04 13:55 43.85523 0.83211 38921 ft 446 kts 224°
2026-05-04 13:56 43.80920 0.77435 38916 ft 445 kts 222°
2026-05-04 13:57 43.73968 0.68941 38928 ft 444 kts 222°
2026-05-04 13:58 43.64714 0.57595 38938 ft 444 kts 222°
2026-05-04 13:58 43.57806 0.49137 38938 ft 444 kts 222°
2026-05-04 13:59 43.53171 0.43477 39016 ft 445 kts 222°
2026-05-04 13:59 43.48535 0.37829 39361 ft 445 kts 222°
2026-05-04 14:00 43.46197 0.34985 39328 ft 451 kts 222°
2026-05-04 14:00 43.41501 0.29279 39585 ft 451 kts 222°
2026-05-04 14:00 43.39149 0.26423 39886 ft 450 kts 222°
2026-05-04 14:01 43.36792 0.23568 40067 ft 452 kts 222°
2026-05-04 14:01 43.34433 0.20719 40191 ft 452 kts 222°
2026-05-04 14:01 43.29698 0.15009 40449 ft 453 kts 222°
2026-05-04 14:02 43.27327 0.12154 40571 ft 453 kts 222°
2026-05-04 14:02 43.24955 0.09298 40733 ft 453 kts 222°
2026-05-04 14:02 43.22582 0.06444 40902 ft 454 kts 222°
2026-05-04 14:03 43.17861 0.00774 40957 ft 453 kts 222°
2026-05-04 14:03 43.13115 -0.04910 40967 ft 454 kts 222°
2026-05-04 14:04 43.05949 -0.13473 40968 ft 456 kts 222°
2026-05-04 14:04 43.01191 -0.19145 40957 ft 456 kts 221°
2026-05-04 14:05 42.94037 -0.27650 40963 ft 453 kts 221°
2026-05-04 14:06 42.89280 -0.33287 40962 ft 453 kts 221°
2026-05-04 14:06 42.84541 -0.38896 40952 ft 453 kts 221°
2026-05-04 14:07 42.79416 -0.43917 40944 ft 455 kts 210°
2026-05-04 14:07 42.73605 -0.47392 40934 ft 457 kts 204°
2026-05-04 14:08 42.67658 -0.50512 40936 ft 458 kts 203°
2026-05-04 14:08 42.61699 -0.53584 40935 ft 458 kts 203°
2026-05-04 14:09 42.52823 -0.58207 40932 ft 456 kts 203°
2026-05-04 14:10 42.43929 -0.62860 40921 ft 456 kts 203°
2026-05-04 14:10 42.37989 -0.65956 40918 ft 456 kts 204°
2026-05-04 14:11 42.32100 -0.69017 40920 ft 455 kts 204°
2026-05-04 14:11 42.23216 -0.73626 40920 ft 455 kts 204°
2026-05-04 14:12 42.17292 -0.76691 40938 ft 455 kts 204°
2026-05-04 14:13 42.08468 -0.81244 40916 ft 454 kts 204°
2026-05-04 14:13 42.02562 -0.84286 40916 ft 453 kts 204°
2026-05-04 14:14 41.96660 -0.87320 40911 ft 453 kts 204°
2026-05-04 14:14 41.87836 -0.91841 40914 ft 452 kts 204°
2026-05-04 14:15 41.76114 -0.97827 40901 ft 451 kts 204°
2026-05-04 14:16 41.67370 -1.02542 40907 ft 449 kts 211°
2026-05-04 14:17 41.62322 -1.07264 40914 ft 444 kts 222°
2026-05-04 14:17 41.59986 -1.09977 40911 ft 444 kts 223°
2026-05-04 14:18 41.53138 -1.18298 40911 ft 446 kts 224°
2026-05-04 14:19 41.43896 -1.29468 40921 ft 448 kts 224°
2026-05-04 14:19 41.39280 -1.34996 40924 ft 448 kts 224°
2026-05-04 14:20 41.34634 -1.40549 40922 ft 448 kts 224°
2026-05-04 14:20 41.29997 -1.46082 40926 ft 447 kts 224°
2026-05-04 14:21 41.23058 -1.54340 40942 ft 447 kts 224°
2026-05-04 14:21 41.18418 -1.59852 40934 ft 448 kts 224°
2026-05-04 14:22 41.13758 -1.65375 40934 ft 449 kts 224°
2026-05-04 14:22 41.09097 -1.70886 40934 ft 448 kts 224°
2026-05-04 14:23 41.02136 -1.79102 40944 ft 447 kts 224°
2026-05-04 14:24 40.98234 -1.83700 40948 ft 447 kts 224°
2026-05-04 14:24 40.93594 -1.89145 40951 ft 448 kts 224°
2026-05-04 14:25 40.88929 -1.94608 40928 ft 448 kts 224°
2026-05-04 14:25 40.81969 -2.02744 40955 ft 446 kts 224°
2026-05-04 14:26 40.77316 -2.08173 40954 ft 445 kts 224°
2026-05-04 14:26 40.72689 -2.13562 40954 ft 446 kts 224°
2026-05-04 14:27 40.68026 -2.18982 40958 ft 445 kts 224°
2026-05-04 14:27 40.63386 -2.24346 40957 ft 446 kts 224°
2026-05-04 14:28 40.58712 -2.29739 40966 ft 446 kts 224°
2026-05-04 14:28 40.54025 -2.35140 40955 ft 448 kts 224°
2026-05-04 14:29 40.44652 -2.45914 40941 ft 449 kts 224°
2026-05-04 14:30 40.39941 -2.51314 40959 ft 448 kts 224°
2026-05-04 14:31 40.33559 -2.60143 40961 ft 445 kts 231°
2026-05-04 14:32 40.25630 -2.72636 40964 ft 446 kts 232°
2026-05-04 14:32 40.21655 -2.78889 40930 ft 446 kts 232°
2026-05-04 14:33 40.17677 -2.85116 40955 ft 445 kts 232°
2026-05-04 14:33 40.13710 -2.91308 40953 ft 444 kts 232°
2026-05-04 14:34 40.09759 -2.97464 40953 ft 444 kts 232°
2026-05-04 14:34 40.05781 -3.03649 40955 ft 444 kts 232°
2026-05-04 14:35 40.01789 -3.09845 40956 ft 446 kts 232°
2026-05-04 14:35 39.97813 -3.16004 40934 ft 446 kts 232°
2026-05-04 14:36 39.93813 -3.22187 40946 ft 445 kts 232°
2026-05-04 14:36 39.89814 -3.28355 40946 ft 445 kts 232°
2026-05-04 14:37 39.85813 -3.34515 40946 ft 445 kts 232°
2026-05-04 14:37 39.81815 -3.40659 40942 ft 445 kts 232°
2026-05-04 14:38 39.77827 -3.46775 40947 ft 445 kts 232°
2026-05-04 14:38 39.73586 -3.52671 40937 ft 447 kts 227°
2026-05-04 14:39 39.69140 -3.58330 40943 ft 447 kts 227°
2026-05-04 14:39 39.64712 -3.64009 40944 ft 447 kts 227°
2026-05-04 14:40 39.58143 -3.72587 40947 ft 447 kts 228°
2026-05-04 14:40 39.53795 -3.78283 40951 ft 447 kts 228°
2026-05-04 14:41 39.49417 -3.84005 40965 ft 446 kts 228°
2026-05-04 14:42 39.40675 -3.95389 40962 ft 446 kts 228°
2026-05-04 14:42 39.36350 -4.01006 40947 ft 446 kts 228°
2026-05-04 14:43 39.31998 -4.06646 40973 ft 446 kts 228°
2026-05-04 14:43 39.27624 -4.12305 40964 ft 445 kts 228°
2026-05-04 14:44 39.23245 -4.17960 40974 ft 445 kts 228°
2026-05-04 14:44 39.18870 -4.23598 40975 ft 444 kts 228°
2026-05-04 14:45 39.14493 -4.29230 40984 ft 444 kts 227°
2026-05-04 14:45 39.10116 -4.34850 40983 ft 444 kts 227°
2026-05-04 14:46 39.05726 -4.40477 40983 ft 445 kts 227°
2026-05-04 14:46 39.01371 -4.46048 40974 ft 444 kts 227°
2026-05-04 14:47 38.96992 -4.51639 40987 ft 442 kts 227°
2026-05-04 14:47 38.92627 -4.57203 40984 ft 442 kts 227°
2026-05-04 14:48 38.88249 -4.62770 40989 ft 443 kts 227°
2026-05-04 14:48 38.83890 -4.68303 40990 ft 443 kts 227°
2026-05-04 14:49 38.79506 -4.73857 40974 ft 443 kts 227°
2026-05-04 14:49 38.75118 -4.79407 40990 ft 442 kts 227°
2026-05-04 14:50 38.70732 -4.84943 40992 ft 442 kts 227°
2026-05-04 14:50 38.66349 -4.90466 40990 ft 442 kts 227°
2026-05-04 14:51 38.61991 -4.95948 40993 ft 442 kts 227°
2026-05-04 14:51 38.57602 -5.01459 40993 ft 442 kts 227°
2026-05-04 14:52 38.53197 -5.06953 40979 ft 443 kts 226°
2026-05-04 14:52 38.48153 -5.11558 40996 ft 449 kts 213°
2026-05-04 14:53 38.42608 -5.15176 40994 ft 451 kts 211°
2026-05-04 14:53 38.36938 -5.18654 40991 ft 451 kts 211°
2026-05-04 14:54 38.31274 -5.22119 40994 ft 451 kts 211°
2026-05-04 14:54 38.25613 -5.25609 40992 ft 451 kts 211°
2026-05-04 14:55 38.19961 -5.29101 40993 ft 451 kts 211°
2026-05-04 14:55 38.14329 -5.32579 40992 ft 451 kts 211°
2026-05-04 14:56 38.08674 -5.36064 40996 ft 453 kts 211°
2026-05-04 14:56 38.03031 -5.39533 40986 ft 452 kts 211°
2026-05-04 14:57 37.97362 -5.43010 40996 ft 452 kts 211°
2026-05-04 14:57 37.91698 -5.46480 41000 ft 451 kts 211°
2026-05-04 14:58 37.86040 -5.49942 40994 ft 452 kts 211°
2026-05-04 14:58 37.80407 -5.53381 40984 ft 451 kts 211°
2026-05-04 14:59 37.74755 -5.56824 40996 ft 450 kts 211°
2026-05-04 15:00 37.66282 -5.61977 41001 ft 450 kts 211°
2026-05-04 15:00 37.60634 -5.65405 41005 ft 450 kts 211°
2026-05-04 15:01 37.52217 -5.70502 41014 ft 447 kts 211°
2026-05-04 15:01 37.46605 -5.73895 41019 ft 448 kts 211°
2026-05-04 15:02 37.41316 -5.77879 41022 ft 439 kts 223°
2026-05-04 15:02 37.36610 -5.82689 41021 ft 438 kts 225°
2026-05-04 15:03 37.31971 -5.87652 40992 ft 437 kts 225°
2026-05-04 15:03 37.27350 -5.92604 41009 ft 436 kts 225°
2026-05-04 15:04 37.22726 -5.97526 41006 ft 435 kts 225°
2026-05-04 15:04 37.18119 -6.02406 41007 ft 435 kts 225°
2026-05-04 15:05 37.13491 -6.07296 41017 ft 435 kts 225°
2026-05-04 15:05 37.08854 -6.12190 41022 ft 436 kts 225°
2026-05-04 15:06 37.04213 -6.17078 41027 ft 434 kts 225°
2026-05-04 15:07 36.97325 -6.24318 41045 ft 431 kts 225°
2026-05-04 15:07 36.92727 -6.29144 41044 ft 431 kts 225°
2026-05-04 15:08 36.88130 -6.33962 41054 ft 431 kts 225°
2026-05-04 15:08 36.83526 -6.38777 41063 ft 431 kts 225°
2026-05-04 15:09 36.78925 -6.43580 41068 ft 429 kts 225°
2026-05-04 15:09 36.74349 -6.48348 41070 ft 428 kts 225°
2026-05-04 15:10 36.67522 -6.55455 41067 ft 429 kts 225°
2026-05-04 15:11 36.60643 -6.62595 41056 ft 429 kts 225°
2026-05-04 15:11 36.56828 -6.66548 41057 ft 429 kts 225°
2026-05-04 15:12 36.52289 -6.71242 41052 ft 428 kts 225°
2026-05-04 15:12 36.47708 -6.75978 41055 ft 428 kts 225°
2026-05-04 15:13 36.43149 -6.80676 41061 ft 427 kts 225°
2026-05-04 15:13 36.38568 -6.85388 41056 ft 428 kts 225°
2026-05-04 15:14 36.33979 -6.90104 41064 ft 428 kts 225°
2026-05-04 15:14 36.29404 -6.94798 41029 ft 428 kts 225°
2026-05-04 15:15 36.24804 -6.99510 41067 ft 429 kts 225°
2026-05-04 15:15 36.20201 -7.04217 41067 ft 429 kts 225°
2026-05-04 15:16 36.13287 -7.11275 41069 ft 429 kts 225°
2026-05-04 15:17 36.06399 -7.18290 41069 ft 429 kts 225°
2026-05-04 15:17 35.99484 -7.25315 41071 ft 429 kts 225°
2026-05-04 15:18 35.94864 -7.29999 41075 ft 429 kts 225°
2026-05-04 15:19 35.87969 -7.36977 41079 ft 429 kts 225°
2026-05-04 15:19 35.81035 -7.43974 41078 ft 429 kts 225°
2026-05-04 15:20 35.76392 -7.48609 41078 ft 429 kts 225°
2026-05-04 15:20 35.71745 -7.53233 41078 ft 429 kts 225°
2026-05-04 15:21 35.67093 -7.57861 41077 ft 429 kts 225°
2026-05-04 15:22 35.60149 -7.64761 41079 ft 430 kts 225°
2026-05-04 15:22 35.53171 -7.71680 41081 ft 430 kts 225°
2026-05-04 15:23 35.48514 -7.76289 41071 ft 430 kts 225°
2026-05-04 15:23 35.43853 -7.80894 41083 ft 430 kts 225°
2026-05-04 15:24 35.34751 -7.89951 41085 ft 429 kts 225°
2026-05-04 15:25 35.30126 -7.94582 41085 ft 429 kts 225°
2026-05-04 15:26 35.23190 -8.01501 41068 ft 429 kts 225°
2026-05-04 15:26 35.16238 -8.08414 41086 ft 429 kts 225°
2026-05-04 15:27 35.09270 -8.15328 41086 ft 429 kts 225°
2026-05-04 15:28 35.02335 -8.22193 41089 ft 429 kts 225°
2026-05-04 15:29 34.95374 -8.29069 41067 ft 429 kts 225°
2026-05-04 15:30 34.79173 -8.45013 41095 ft 428 kts 225°
2026-05-04 15:31 34.72208 -8.51840 41096 ft 428 kts 224°
2026-05-04 15:32 34.60604 -8.63183 41094 ft 428 kts 224°
2026-05-04 15:34 34.49023 -8.74463 41086 ft 428 kts 224°
2026-05-04 15:34 34.42053 -8.81232 41090 ft 428 kts 224°
2026-05-04 15:35 34.35058 -8.87951 41094 ft 427 kts 224°